Time,TemperatureF,DewpointF,PressureIn,WindDirection,WindDirectionDegrees,WindSpeedMPH,WindSpeedGustMPH,Humidity,HourlyPrecipIn,Conditions,Clouds,dailyrainin,SolarRadiationWatts/m^2,SoftwareType,DateUTC
2013-09-21 00:21:00,54.0,53.0,29.95,NNW,343,3.0,6.0,97,-99.99,,,-99.99,0.000000,,2013-09-21 07:21:00,
2013-09-21 00:32:00,54.0,53.0,29.95,NNW,343,3.0,6.0,97,-99.99,,,-99.99,0.000000,,2013-09-21 07:32:00,
2013-09-21 00:40:00,51.0,51.0,29.95,ENE,59,3.0,6.0,97,-99.99,,,-99.99,0.000000,,2013-09-21 07:40:00,
2013-09-21 01:22:00,51.0,51.0,29.95,ENE,59,3.0,6.0,97,-99.99,,,-99.99,0.000000,,2013-09-21 08:22:00,
2013-09-21 01:32:00,51.0,51.0,29.95,ENE,59,3.0,6.0,97,-99.99,,,-99.99,0.000000,,2013-09-21 08:32:00,
2013-09-21 01:40:00,52.0,51.0,29.95,West,272,3.0,5.0,94,-99.99,,,-99.99,0.000000,,2013-09-21 08:40:00,
2013-09-21 02:22:00,52.0,51.0,29.95,West,272,3.0,5.0,94,-99.99,,,-99.99,0.000000,,2013-09-21 09:22:00,
2013-09-21 02:33:00,52.0,51.0,29.95,West,272,3.0,5.0,94,-99.99,,,-99.99,0.000000,,2013-09-21 09:33:00,
2013-09-21 02:40:00,52.0,51.0,29.95,NE,34,4.0,5.0,97,-99.99,,,-99.99,0.000000,,2013-09-21 09:40:00,
2013-09-21 03:23:00,52.0,51.0,29.95,NE,34,4.0,5.0,97,-99.99,,,-99.99,0.000000,,2013-09-21 10:23:00,
2013-09-21 03:33:00,52.0,51.0,29.95,NE,34,4.0,5.0,97,-99.99,,,-99.99,0.000000,,2013-09-21 10:33:00,
2013-09-21 03:40:00,55.0,52.0,29.93,ESE,105,4.0,6.0,87,-99.99,,,-99.99,0.000000,,2013-09-21 10:40:00,
2013-09-21 04:23:00,55.0,52.0,29.93,ESE,105,4.0,6.0,87,-99.99,,,-99.99,0.000000,,2013-09-21 11:23:00,
2013-09-21 04:33:00,55.0,52.0,29.93,ESE,105,4.0,6.0,87,-99.99,,,-99.99,0.000000,,2013-09-21 11:33:00,
2013-09-21 04:40:00,55.0,52.0,29.92,West,266,1.0,2.0,90,-99.99,,,-99.99,0.000000,,2013-09-21 11:40:00,
2013-09-21 05:21:00,55.0,52.0,29.92,West,266,1.0,2.0,90,-99.99,,,-99.99,0.000000,,2013-09-21 12:21:00,
2013-09-21 05:32:00,55.0,52.0,29.92,West,266,1.0,2.0,90,-99.99,,,-99.99,0.000000,,2013-09-21 12:32:00,
2013-09-21 05:40:00,56.0,54.0,29.91,South,179,3.0,6.0,92,-99.99,,,-99.99,0.000000,,2013-09-21 12:40:00,
2013-09-21 06:21:00,56.0,54.0,29.91,South,179,3.0,6.0,92,-99.99,,,-99.99,0.000000,,2013-09-21 13:21:00,
2013-09-21 06:32:00,56.0,54.0,29.91,South,179,3.0,6.0,92,-99.99,,,-99.99,0.000000,,2013-09-21 13:32:00,
2013-09-21 06:40:00,54.0,53.0,29.92,SSE,151,3.0,5.0,96,-99.99,,,-99.99,0.000000,,2013-09-21 13:40:00,
2013-09-21 07:22:00,54.0,53.0,29.92,SSE,151,3.0,5.0,96,-99.99,,,-99.99,0.000000,,2013-09-21 14:22:00,
2013-09-21 07:32:00,54.0,53.0,29.92,SSE,151,3.0,5.0,96,-99.99,,,-99.99,0.000000,,2013-09-21 14:32:00,
2013-09-21 07:40:00,55.0,54.0,29.92,SSW,196,4.0,7.0,97,-99.99,,,-99.99,37.000000,,2013-09-21 14:40:00,
2013-09-21 08:22:00,55.0,54.0,29.92,SSW,196,4.0,7.0,97,-99.99,,,-99.99,37.000000,,2013-09-21 15:22:00,
2013-09-21 08:34:00,55.0,54.0,29.92,SSW,196,4.0,7.0,97,-99.99,,,-99.99,37.000000,,2013-09-21 15:34:00,
2013-09-21 08:40:00,55.0,54.0,29.93,SSW,212,1.0,3.0,97,-99.99,,,-99.99,69.000000,,2013-09-21 15:40:00,
2013-09-21 09:24:00,55.0,54.0,29.93,SSW,212,1.0,3.0,97,-99.99,,,-99.99,69.000000,,2013-09-21 16:24:00,
2013-09-21 09:34:00,55.0,54.0,29.93,SSW,212,1.0,3.0,97,-99.99,,,-99.99,69.000000,,2013-09-21 16:34:00,
2013-09-21 09:40:00,54.0,53.0,29.94,SSW,201,5.0,9.0,97,-99.99,,,-99.99,84.000000,,2013-09-21 16:40:00,
2013-09-21 10:23:00,54.0,53.0,29.94,SSW,201,5.0,9.0,97,-99.99,,,-99.99,84.000000,,2013-09-21 17:23:00,
2013-09-21 10:34:00,54.0,53.0,29.94,SSW,201,5.0,9.0,97,-99.99,,,-99.99,84.000000,,2013-09-21 17:34:00,
2013-09-21 10:40:00,54.0,54.0,29.96,South,177,5.0,10.0,98,-99.99,,,-99.99,260.000000,,2013-09-21 17:40:00,
2013-09-21 11:22:00,54.0,54.0,29.96,South,177,5.0,10.0,98,-99.99,,,-99.99,260.000000,,2013-09-21 18:22:00,
2013-09-21 11:32:00,54.0,54.0,29.96,South,177,5.0,10.0,98,-99.99,,,-99.99,260.000000,,2013-09-21 18:32:00,
2013-09-21 11:40:00,56.0,55.0,29.96,WSW,239,4.0,9.0,97,-99.99,,,-99.99,422.000000,,2013-09-21 18:40:00,
2013-09-21 12:21:00,56.0,55.0,29.96,WSW,239,4.0,9.0,97,-99.99,,,-99.99,422.000000,,2013-09-21 19:21:00,
2013-09-21 12:32:00,56.0,55.0,29.96,WSW,239,4.0,9.0,97,-99.99,,,-99.99,422.000000,,2013-09-21 19:32:00,
2013-09-21 12:40:00,55.0,54.0,29.96,West,280,6.0,9.0,97,-99.99,,,-99.99,275.000000,,2013-09-21 19:40:00,
2013-09-21 13:22:00,55.0,54.0,29.96,West,280,6.0,9.0,97,-99.99,,,-99.99,275.000000,,2013-09-21 20:22:00,
2013-09-21 13:32:00,55.0,54.0,29.96,West,280,6.0,9.0,97,-99.99,,,-99.99,275.000000,,2013-09-21 20:32:00,
2013-09-21 13:40:00,57.0,54.0,29.95,West,278,6.0,12.0,88,-99.99,,,-99.99,721.000000,,2013-09-21 20:40:00,
2013-09-21 14:22:00,57.0,54.0,29.95,West,278,6.0,12.0,88,-99.99,,,-99.99,721.000000,,2013-09-21 21:22:00,
2013-09-21 14:34:00,57.0,54.0,29.95,West,278,6.0,12.0,88,-99.99,,,-99.99,721.000000,,2013-09-21 21:34:00,
2013-09-21 14:40:00,55.0,53.0,29.94,West,276,8.0,12.0,92,-99.99,,,-99.99,204.000000,,2013-09-21 21:40:00,
2013-09-21 15:40:00,54.0,53.0,29.92,West,275,9.0,13.0,97,-99.99,,,-99.99,273.000000,,2013-09-21 22:40:00,
2013-09-21 16:23:00,54.0,53.0,29.92,West,275,9.0,13.0,97,-99.99,,,-99.99,273.000000,,2013-09-21 23:23:00,
2013-09-21 16:34:00,54.0,53.0,29.92,West,275,9.0,13.0,97,-99.99,,,-99.99,273.000000,,2013-09-21 23:34:00,
2013-09-21 16:40:00,53.0,53.0,29.91,West,273,17.0,23.0,97,-99.99,,,-99.99,113.000000,,2013-09-21 23:40:00,
2013-09-21 17:22:00,53.0,53.0,29.91,West,273,17.0,23.0,97,-99.99,,,-99.99,113.000000,,2013-09-22 00:22:00,
2013-09-21 17:32:00,53.0,53.0,29.91,West,273,17.0,23.0,97,-99.99,,,-99.99,113.000000,,2013-09-22 00:32:00,
2013-09-21 17:40:00,54.0,53.0,29.91,WNW,296,10.0,18.0,98,-99.99,,,-99.99,233.000000,,2013-09-22 00:40:00,
2013-09-21 18:21:00,54.0,53.0,29.91,WNW,296,10.0,18.0,98,-99.99,,,-99.99,233.000000,,2013-09-22 01:21:00,
2013-09-21 18:32:00,54.0,53.0,29.91,WNW,296,10.0,18.0,98,-99.99,,,-99.99,233.000000,,2013-09-22 01:32:00,
2013-09-21 19:40:00,52.0,51.0,29.91,NW,309,6.0,8.0,98,-99.99,,,-99.99,0.000000,,2013-09-22 02:40:00,
2013-09-21 20:22:00,52.0,51.0,29.91,NW,309,6.0,8.0,98,-99.99,,,-99.99,0.000000,,2013-09-22 03:22:00,
2013-09-21 20:33:00,52.0,51.0,29.91,NW,309,6.0,8.0,98,-99.99,,,-99.99,0.000000,,2013-09-22 03:33:00,
2013-09-21 20:40:00,49.0,48.0,29.94,NW,322,7.0,10.0,98,-99.99,,,-99.99,0.000000,,2013-09-22 03:40:00,
2013-09-21 21:23:00,49.0,48.0,29.94,NW,322,7.0,10.0,98,-99.99,,,-99.99,0.000000,,2013-09-22 04:23:00,
2013-09-21 21:33:00,49.0,48.0,29.94,NW,322,7.0,10.0,98,-99.99,,,-99.99,0.000000,,2013-09-22 04:33:00,
2013-09-21 21:40:00,48.0,47.0,29.94,NW,308,8.0,10.0,96,-99.99,,,-99.99,0.000000,,2013-09-22 04:40:00,
2013-09-21 22:23:00,48.0,47.0,29.94,NW,308,8.0,10.0,96,-99.99,,,-99.99,0.000000,,2013-09-22 05:23:00,
2013-09-21 22:34:00,48.0,47.0,29.94,NW,308,8.0,10.0,96,-99.99,,,-99.99,0.000000,,2013-09-22 05:34:00,
2013-09-21 22:40:00,47.0,46.0,29.95,NW,312,8.0,9.0,94,-99.99,,,-99.99,0.000000,,2013-09-22 05:40:00,
2013-09-21 23:22:00,47.0,46.0,29.95,NW,312,8.0,9.0,94,-99.99,,,-99.99,0.000000,,2013-09-22 06:22:00,
2013-09-21 23:32:00,47.0,46.0,29.95,NW,312,8.0,9.0,94,-99.99,,,-99.99,0.000000,,2013-09-22 06:32:00,
2013-09-21 23:40:00,49.0,43.0,29.95,NW,320,8.0,10.0,80,-99.99,,,-99.99,0.000000,,2013-09-22 06:40:00,